Year,Month,Day,Hour,Minute,Value (Times are PST for temperature in C)
2017,04,21,00,00,6.80
2017,04,21,00,01,6.80
2017,04,21,00,02,6.80
2017,04,21,00,03,6.80
2017,04,21,00,04,6.90
2017,04,21,00,05,6.90
2017,04,21,00,06,6.90
2017,04,21,00,07,6.80
2017,04,21,00,08,6.80
2017,04,21,00,09,6.80
2017,04,21,00,10,6.80
2017,04,21,00,11,6.80
2017,04,21,00,12,6.80
2017,04,21,00,13,6.80
2017,04,21,00,14,6.80
2017,04,21,00,15,6.80
2017,04,21,00,16,6.80
2017,04,21,00,17,6.80
2017,04,21,00,18,6.70
2017,04,21,00,19,6.70
2017,04,21,00,20,6.70
2017,04,21,00,21,6.70
2017,04,21,00,22,6.70
2017,04,21,00,23,6.70
2017,04,21,00,24,6.70
2017,04,21,00,25,6.70
2017,04,21,00,26,6.70
2017,04,21,00,27,6.70
2017,04,21,00,28,6.70
2017,04,21,00,29,6.60
2017,04,21,00,30,6.60
2017,04,21,00,31,6.60
2017,04,21,00,32,6.60
2017,04,21,00,33,6.60
2017,04,21,00,34,6.60
2017,04,21,00,35,6.60
2017,04,21,00,36,6.60
2017,04,21,00,37,6.50
2017,04,21,00,38,6.50
2017,04,21,00,39,6.50
2017,04,21,00,40,6.50
2017,04,21,00,41,6.40
2017,04,21,00,42,6.40
2017,04,21,00,43,6.40
2017,04,21,00,44,6.40
2017,04,21,00,45,6.40
2017,04,21,00,46,6.40
2017,04,21,00,47,6.40
2017,04,21,00,48,6.30
2017,04,21,00,49,6.30
2017,04,21,00,50,6.30
2017,04,21,00,51,6.30
2017,04,21,00,52,6.30
2017,04,21,00,53,6.30
2017,04,21,00,54,6.20
2017,04,21,00,55,6.20
2017,04,21,00,56,6.20
2017,04,21,00,57,6.20
2017,04,21,00,58,6.20
2017,04,21,00,59,6.20
2017,04,21,01,00,6.20
2017,04,21,01,01,6.10
2017,04,21,01,02,6.10
2017,04,21,01,03,6.10
2017,04,21,01,04,6.00
2017,04,21,01,05,5.90
2017,04,21,01,06,5.90
2017,04,21,01,07,5.90
2017,04,21,01,08,5.90
2017,04,21,01,09,5.80
2017,04,21,01,10,5.80
2017,04,21,01,11,5.80
2017,04,21,01,12,5.90
2017,04,21,01,13,5.90
2017,04,21,01,14,5.90
2017,04,21,01,15,5.90
2017,04,21,01,16,5.90
2017,04,21,01,17,5.90
2017,04,21,01,18,5.90
2017,04,21,01,19,6.00
2017,04,21,01,20,5.90
2017,04,21,01,21,5.90
2017,04,21,01,22,5.90
2017,04,21,01,23,5.90
2017,04,21,01,24,5.90
2017,04,21,01,25,5.80
2017,04,21,01,26,5.80
2017,04,21,01,27,5.80
2017,04,21,01,28,5.80
2017,04,21,01,29,5.70
2017,04,21,01,30,5.70
2017,04,21,01,31,5.70
2017,04,21,01,32,5.70
2017,04,21,01,33,5.70
2017,04,21,01,34,5.70
2017,04,21,01,35,5.70
2017,04,21,01,36,5.70
2017,04,21,01,37,5.80
2017,04,21,01,38,5.80
2017,04,21,01,39,5.80
2017,04,21,01,40,5.80
2017,04,21,01,41,5.80
2017,04,21,01,42,5.80
2017,04,21,01,43,5.80
2017,04,21,01,44,5.80
2017,04,21,01,45,5.80
2017,04,21,01,46,5.80
2017,04,21,01,47,5.80
2017,04,21,01,48,5.80
2017,04,21,01,49,5.80
2017,04,21,01,50,5.80
2017,04,21,01,51,5.80
2017,04,21,01,52,5.80
2017,04,21,01,53,5.80
2017,04,21,01,54,5.80
2017,04,21,01,55,5.80
2017,04,21,01,56,5.80
2017,04,21,01,57,5.80
2017,04,21,01,58,5.80
2017,04,21,01,59,5.80
2017,04,21,02,00,5.80
2017,04,21,02,01,5.80
2017,04,21,02,02,5.70
2017,04,21,02,03,5.70
2017,04,21,02,04,5.70
2017,04,21,02,05,5.70
2017,04,21,02,06,5.70
2017,04,21,02,07,5.70
2017,04,21,02,08,5.60
2017,04,21,02,09,5.60
2017,04,21,02,10,5.60
2017,04,21,02,11,5.60
2017,04,21,02,12,5.60
2017,04,21,02,13,5.60
2017,04,21,02,14,5.50
2017,04,21,02,15,5.50
2017,04,21,02,16,5.50
2017,04,21,02,17,5.50
2017,04,21,02,18,5.40
2017,04,21,02,19,5.40
2017,04,21,02,20,5.40
2017,04,21,02,21,5.40
2017,04,21,02,22,5.40
2017,04,21,02,23,5.40
2017,04,21,02,24,5.40
2017,04,21,02,25,5.40
2017,04,21,02,26,5.40
2017,04,21,02,27,5.30
2017,04,21,02,28,5.30
2017,04,21,02,29,5.30
2017,04,21,02,30,5.30
2017,04,21,02,31,5.30
2017,04,21,02,32,5.30
2017,04,21,02,33,5.30
2017,04,21,02,34,5.30
2017,04,21,02,35,5.30
2017,04,21,02,36,5.30
2017,04,21,02,37,5.20
2017,04,21,02,38,5.20
2017,04,21,02,39,5.20
2017,04,21,02,40,5.20
2017,04,21,02,41,5.20
2017,04,21,02,42,5.20
2017,04,21,02,43,5.20
2017,04,21,02,44,5.20
2017,04,21,02,45,5.20
2017,04,21,02,46,5.20
2017,04,21,02,47,5.20
2017,04,21,02,48,5.20
2017,04,21,02,49,5.20
2017,04,21,02,50,5.20
2017,04,21,02,51,5.20
2017,04,21,02,52,5.20
2017,04,21,02,53,5.20
2017,04,21,02,54,5.30
2017,04,21,02,55,5.30
2017,04,21,02,56,5.30
2017,04,21,02,57,5.30
2017,04,21,02,58,5.30
2017,04,21,02,59,5.40
2017,04,21,03,00,5.40
2017,04,21,03,01,5.40
2017,04,21,03,02,5.40
2017,04,21,03,03,5.40
2017,04,21,03,04,5.40
2017,04,21,03,05,5.40
2017,04,21,03,06,5.40
2017,04,21,03,07,5.40
2017,04,21,03,08,5.40
2017,04,21,03,09,5.40
2017,04,21,03,10,5.40
2017,04,21,03,11,5.50
2017,04,21,03,12,5.50
2017,04,21,03,13,5.50
2017,04,21,03,14,5.50
2017,04,21,03,15,5.50
2017,04,21,03,16,5.60
2017,04,21,03,17,5.60
2017,04,21,03,18,5.60
2017,04,21,03,19,5.60
2017,04,21,03,20,5.60
2017,04,21,03,21,5.70
2017,04,21,03,22,5.70
2017,04,21,03,23,5.70
2017,04,21,03,24,5.70
2017,04,21,03,25,5.70
2017,04,21,03,26,5.70
2017,04,21,03,27,5.70
2017,04,21,03,28,5.70
2017,04,21,03,29,5.70
2017,04,21,03,30,5.70
2017,04,21,03,31,5.70
2017,04,21,03,32,5.70
2017,04,21,03,33,5.70
2017,04,21,03,34,5.70
2017,04,21,03,35,5.70
2017,04,21,03,36,5.70
2017,04,21,03,37,5.70
2017,04,21,03,38,5.70
2017,04,21,03,39,5.70
2017,04,21,03,40,5.70
2017,04,21,03,41,5.70
2017,04,21,03,42,5.70
2017,04,21,03,43,5.80
2017,04,21,03,44,5.80
2017,04,21,03,45,5.90
2017,04,21,03,46,5.90
2017,04,21,03,47,6.00
2017,04,21,03,48,6.00
2017,04,21,03,49,6.10
2017,04,21,03,50,6.10
2017,04,21,03,51,6.20
2017,04,21,03,52,6.20
2017,04,21,03,53,6.20
2017,04,21,03,54,6.30
2017,04,21,03,55,6.30
2017,04,21,03,56,6.30
2017,04,21,03,57,6.40
2017,04,21,03,58,6.40
2017,04,21,03,59,6.40
2017,04,21,04,00,6.40
2017,04,21,04,01,6.40
2017,04,21,04,02,6.50
2017,04,21,04,03,6.60
2017,04,21,04,04,6.60
2017,04,21,04,05,6.60
2017,04,21,04,06,6.70
2017,04,21,04,07,6.70
2017,04,21,04,08,6.70
2017,04,21,04,09,6.70
2017,04,21,04,10,6.70
2017,04,21,04,11,6.70
2017,04,21,04,12,6.80
2017,04,21,04,13,6.80
2017,04,21,04,14,6.80
2017,04,21,04,15,6.80
2017,04,21,04,16,6.80
2017,04,21,04,17,6.80
2017,04,21,04,18,6.80
2017,04,21,04,19,6.80
2017,04,21,04,20,6.80
2017,04,21,04,21,6.90
2017,04,21,04,22,6.90
2017,04,21,04,23,6.90
2017,04,21,04,24,6.90
2017,04,21,04,25,6.90
2017,04,21,04,26,6.90
2017,04,21,04,27,6.90
2017,04,21,04,28,6.90
2017,04,21,04,29,6.90
2017,04,21,04,30,6.90
2017,04,21,04,31,6.90
2017,04,21,04,32,6.90
2017,04,21,04,33,6.90
2017,04,21,04,34,6.90
2017,04,21,04,35,7.00
2017,04,21,04,36,7.00
2017,04,21,04,37,7.00
2017,04,21,04,38,7.00
2017,04,21,04,39,7.00
2017,04,21,04,40,7.00
2017,04,21,04,41,7.00
2017,04,21,04,42,7.00
2017,04,21,04,43,7.00
2017,04,21,04,44,7.00
2017,04,21,04,45,7.00
2017,04,21,04,46,7.00
2017,04,21,04,47,7.00
2017,04,21,04,48,7.00
2017,04,21,04,49,7.00
2017,04,21,04,50,7.10
2017,04,21,04,51,7.10
2017,04,21,04,52,7.10
2017,04,21,04,53,7.10
2017,04,21,04,54,7.10
2017,04,21,04,55,7.00
2017,04,21,04,56,7.00
2017,04,21,04,57,7.00
2017,04,21,04,58,7.00
2017,04,21,04,59,7.00
2017,04,21,05,00,7.00
2017,04,21,05,01,7.00
2017,04,21,05,02,7.00
2017,04,21,05,03,7.00
2017,04,21,05,04,7.00
2017,04,21,05,05,6.90
2017,04,21,05,06,6.90
2017,04,21,05,07,6.90
2017,04,21,05,08,6.90
2017,04,21,05,09,6.90
2017,04,21,05,10,6.90
2017,04,21,05,11,6.90
2017,04,21,05,12,6.90
2017,04,21,05,13,6.90
2017,04,21,05,14,6.90
2017,04,21,05,15,6.90
2017,04,21,05,16,6.90
2017,04,21,05,17,6.90
2017,04,21,05,18,6.90
2017,04,21,05,19,6.90
2017,04,21,05,20,6.90
2017,04,21,05,21,6.90
2017,04,21,05,22,6.90
2017,04,21,05,23,6.90
2017,04,21,05,24,6.90
2017,04,21,05,25,6.90
2017,04,21,05,26,6.90
2017,04,21,05,27,6.90
2017,04,21,05,28,6.90
2017,04,21,05,29,6.90
2017,04,21,05,30,6.90
2017,04,21,05,31,6.90
2017,04,21,05,32,6.90
2017,04,21,05,33,6.90
2017,04,21,05,34,6.90
2017,04,21,05,35,6.90
2017,04,21,05,36,6.90
2017,04,21,05,37,6.90
2017,04,21,05,38,6.90
2017,04,21,05,39,6.90
2017,04,21,05,40,6.90
2017,04,21,05,41,6.90
2017,04,21,05,42,6.90
2017,04,21,05,43,6.90
2017,04,21,05,44,6.90
2017,04,21,05,45,6.90
2017,04,21,05,46,7.00
2017,04,21,05,47,7.00
2017,04,21,05,48,7.00
2017,04,21,05,49,7.00
2017,04,21,05,50,7.00
2017,04,21,05,51,7.00
2017,04,21,05,52,7.00
2017,04,21,05,53,7.00
2017,04,21,05,54,7.00
2017,04,21,05,55,7.00
2017,04,21,05,56,7.00
2017,04,21,05,57,7.10
2017,04,21,05,58,7.10
2017,04,21,05,59,7.10
2017,04,21,06,00,7.10
2017,04,21,06,01,7.10
2017,04,21,06,02,7.10
2017,04,21,06,03,7.00
2017,04,21,06,04,7.10
2017,04,21,06,05,7.10
2017,04,21,06,06,7.10
2017,04,21,06,07,7.10
2017,04,21,06,08,7.10
2017,04,21,06,09,7.10
2017,04,21,06,10,7.10
2017,04,21,06,11,7.10
2017,04,21,06,12,7.10
2017,04,21,06,13,7.10
2017,04,21,06,14,7.10
2017,04,21,06,15,7.10
2017,04,21,06,16,7.10
2017,04,21,06,17,7.10
2017,04,21,06,18,7.10
2017,04,21,06,19,7.10
2017,04,21,06,20,7.10
2017,04,21,06,21,7.20
2017,04,21,06,22,7.20
2017,04,21,06,23,7.20
2017,04,21,06,24,7.20
2017,04,21,06,25,7.20
2017,04,21,06,26,7.20
2017,04,21,06,27,7.20
2017,04,21,06,28,7.20
2017,04,21,06,29,7.20
2017,04,21,06,30,7.20
2017,04,21,06,31,7.20
2017,04,21,06,32,7.20
2017,04,21,06,33,7.20
2017,04,21,06,34,7.20
2017,04,21,06,35,7.20
2017,04,21,06,36,7.20
2017,04,21,06,37,7.20
2017,04,21,06,38,7.20
2017,04,21,06,39,7.20
2017,04,21,06,40,7.20
2017,04,21,06,41,7.20
2017,04,21,06,42,7.20
2017,04,21,06,43,7.30
2017,04,21,06,44,7.30
2017,04,21,06,45,7.30
2017,04,21,06,46,7.30
2017,04,21,06,47,7.30
2017,04,21,06,48,7.30
2017,04,21,06,49,7.30
2017,04,21,06,50,7.30
2017,04,21,06,51,7.30
2017,04,21,06,52,7.30
2017,04,21,06,53,7.30
2017,04,21,06,54,7.30
2017,04,21,06,55,7.40
2017,04,21,06,56,7.40
2017,04,21,06,57,7.40
2017,04,21,06,58,7.40
2017,04,21,06,59,7.40
2017,04,21,07,00,7.40
2017,04,21,07,01,7.40
2017,04,21,07,02,7.40
2017,04,21,07,03,7.40
2017,04,21,07,04,7.40
2017,04,21,07,05,7.50
2017,04,21,07,06,7.50
2017,04,21,07,07,7.50
2017,04,21,07,08,7.50
2017,04,21,07,09,7.50
2017,04,21,07,10,7.50
2017,04,21,07,11,7.50
2017,04,21,07,12,7.50
2017,04,21,07,13,7.60
2017,04,21,07,14,7.60
2017,04,21,07,15,7.60
2017,04,21,07,16,7.60
2017,04,21,07,17,7.60
2017,04,21,07,18,7.60
2017,04,21,07,19,7.60
2017,04,21,07,20,7.60
2017,04,21,07,21,7.60
2017,04,21,07,22,7.60
2017,04,21,07,23,7.60
2017,04,21,07,24,7.60
2017,04,21,07,25,7.60
2017,04,21,07,26,7.60
2017,04,21,07,27,7.60
2017,04,21,07,28,7.60
2017,04,21,07,29,7.60
2017,04,21,07,30,7.60
2017,04,21,07,31,7.60
2017,04,21,07,32,7.60
2017,04,21,07,33,7.60
2017,04,21,07,34,7.60
2017,04,21,07,35,7.60
2017,04,21,07,36,7.60
2017,04,21,07,37,7.60
2017,04,21,07,38,7.60
2017,04,21,07,39,7.60
2017,04,21,07,40,7.60
2017,04,21,07,41,7.60
2017,04,21,07,42,7.60
2017,04,21,07,43,7.60
2017,04,21,07,44,7.60
2017,04,21,07,45,7.60
2017,04,21,07,46,7.70
2017,04,21,07,47,7.70
2017,04,21,07,48,7.70
2017,04,21,07,49,7.70
2017,04,21,07,50,7.70
2017,04,21,07,51,7.70
2017,04,21,07,52,7.70
2017,04,21,07,53,7.80
2017,04,21,07,54,7.80
2017,04,21,07,55,7.90
2017,04,21,07,56,8.00
2017,04,21,07,57,8.00
2017,04,21,07,58,8.10
2017,04,21,07,59,8.10
2017,04,21,08,00,8.20
2017,04,21,08,01,8.20
2017,04,21,08,02,8.30
2017,04,21,08,03,8.30
2017,04,21,08,04,8.30
2017,04,21,08,05,8.30
2017,04,21,08,06,8.30
2017,04,21,08,07,8.40
2017,04,21,08,08,8.40
2017,04,21,08,09,8.40
2017,04,21,08,10,8.40
2017,04,21,08,11,8.40
2017,04,21,08,12,8.40
2017,04,21,08,13,8.40
2017,04,21,08,14,8.40
2017,04,21,08,15,8.40
2017,04,21,08,16,8.50
2017,04,21,08,17,8.50
2017,04,21,08,18,8.50
2017,04,21,08,19,8.40
2017,04,21,08,20,8.40
2017,04,21,08,21,8.40
2017,04,21,08,22,8.40
2017,04,21,08,23,8.40
2017,04,21,08,24,8.40
2017,04,21,08,25,8.40
2017,04,21,08,26,8.40
2017,04,21,08,27,8.50
2017,04,21,08,28,8.50
2017,04,21,08,29,8.50
2017,04,21,08,30,8.50
2017,04,21,08,31,8.60
2017,04,21,08,32,8.60
2017,04,21,08,33,8.60
2017,04,21,08,34,8.60
2017,04,21,08,35,8.60
2017,04,21,08,36,8.70
2017,04,21,08,37,8.70
2017,04,21,08,38,8.70
2017,04,21,08,39,8.70
2017,04,21,08,40,8.80
2017,04,21,08,41,8.80
2017,04,21,08,42,8.80
2017,04,21,08,43,8.80
2017,04,21,08,44,8.80
2017,04,21,08,45,8.80
2017,04,21,08,46,8.80
2017,04,21,08,47,8.80
2017,04,21,08,48,8.80
2017,04,21,08,49,8.80
2017,04,21,08,50,8.80
2017,04,21,08,51,8.70
2017,04,21,08,52,8.70
2017,04,21,08,53,8.70
2017,04,21,08,54,8.70
2017,04,21,08,55,8.70
2017,04,21,08,56,8.70
2017,04,21,08,57,8.60
2017,04,21,08,58,8.60
2017,04,21,08,59,8.70
2017,04,21,09,00,8.70
2017,04,21,09,01,8.70
2017,04,21,09,02,8.70
2017,04,21,09,03,8.60
2017,04,21,09,04,8.60
2017,04,21,09,05,8.70
2017,04,21,09,06,8.70
2017,04,21,09,07,8.70
2017,04,21,09,08,8.70
2017,04,21,09,09,8.70
2017,04,21,09,10,8.80
2017,04,21,09,11,8.80
2017,04,21,09,12,8.90
2017,04,21,09,13,9.00
2017,04,21,09,14,9.10
2017,04,21,09,15,9.20
2017,04,21,09,16,9.30
2017,04,21,09,17,9.30
2017,04,21,09,18,9.40
2017,04,21,09,19,9.40
2017,04,21,09,20,9.50
2017,04,21,09,21,9.60
2017,04,21,09,22,9.70
2017,04,21,09,23,9.70
2017,04,21,09,24,9.70
2017,04,21,09,25,9.70
2017,04,21,09,26,9.70
2017,04,21,09,27,9.70
2017,04,21,09,28,9.80
2017,04,21,09,29,9.80
2017,04,21,09,30,9.80
2017,04,21,09,31,9.80
2017,04,21,09,32,9.80
2017,04,21,09,33,9.80
2017,04,21,09,34,9.90
2017,04,21,09,35,9.90
2017,04,21,09,36,9.90
2017,04,21,09,37,10.00
2017,04,21,09,38,10.00
2017,04,21,09,39,10.10
2017,04,21,09,40,10.10
2017,04,21,09,41,10.20
2017,04,21,09,42,10.20
2017,04,21,09,43,10.20
2017,04,21,09,44,10.20
2017,04,21,09,45,10.20
2017,04,21,09,46,10.20
2017,04,21,09,47,10.30
2017,04,21,09,48,10.30
2017,04,21,09,49,10.30
2017,04,21,09,50,10.30
2017,04,21,09,51,10.30
2017,04,21,09,52,10.40
2017,04,21,09,53,10.40
2017,04,21,09,54,10.50
2017,04,21,09,55,10.50
2017,04,21,09,56,10.60
2017,04,21,09,57,10.70
2017,04,21,09,58,10.70
2017,04,21,09,59,10.70
2017,04,21,10,00,10.80
2017,04,21,10,01,10.80
2017,04,21,10,02,10.80
2017,04,21,10,03,10.90
2017,04,21,10,04,10.90
2017,04,21,10,05,10.90
2017,04,21,10,06,10.90
2017,04,21,10,07,10.80
2017,04,21,10,08,10.80
2017,04,21,10,09,10.70
2017,04,21,10,10,10.60
2017,04,21,10,11,10.60
2017,04,21,10,12,10.50
2017,04,21,10,13,10.50
2017,04,21,10,14,10.40
2017,04,21,10,15,10.40
2017,04,21,10,16,10.50
2017,04,21,10,17,10.40
2017,04,21,10,18,10.30
2017,04,21,10,19,10.30
2017,04,21,10,20,10.30
2017,04,21,10,21,10.30
2017,04,21,10,22,10.30
2017,04,21,10,23,10.30
2017,04,21,10,24,10.30
2017,04,21,10,25,10.30
2017,04,21,10,26,10.30
2017,04,21,10,27,10.30
2017,04,21,10,28,10.40
2017,04,21,10,29,10.50
2017,04,21,10,30,10.50
2017,04,21,10,31,10.60
2017,04,21,10,32,10.60
2017,04,21,10,33,10.70
2017,04,21,10,34,10.70
2017,04,21,10,35,10.80
2017,04,21,10,36,10.80
2017,04,21,10,37,10.80
2017,04,21,10,38,10.90
2017,04,21,10,39,11.00
2017,04,21,10,40,11.10
2017,04,21,10,41,11.10
2017,04,21,10,42,11.00
2017,04,21,10,43,11.00
2017,04,21,10,44,11.00
2017,04,21,10,45,11.10
2017,04,21,10,46,11.10
2017,04,21,10,47,11.20
2017,04,21,10,48,11.20
2017,04,21,10,49,11.10
2017,04,21,10,50,11.00
2017,04,21,10,51,11.00
2017,04,21,10,52,10.90
2017,04,21,10,53,10.80
2017,04,21,10,54,10.70
2017,04,21,10,55,10.70
2017,04,21,10,56,10.70
2017,04,21,10,57,10.70
2017,04,21,10,58,10.80
2017,04,21,10,59,10.90
2017,04,21,11,00,11.00
2017,04,21,11,01,11.10
2017,04,21,11,02,11.10
2017,04,21,11,03,11.20
2017,04,21,11,04,11.30
2017,04,21,11,05,11.40
2017,04,21,11,06,11.40
2017,04,21,11,07,11.50
2017,04,21,11,08,11.60
2017,04,21,11,09,11.60
2017,04,21,11,10,11.60
2017,04,21,11,11,11.70
2017,04,21,11,12,11.70
2017,04,21,11,13,11.60
2017,04,21,11,14,11.60
2017,04,21,11,15,11.50
2017,04,21,11,16,11.50
2017,04,21,11,17,11.40
2017,04,21,11,18,11.40
2017,04,21,11,19,11.30
2017,04,21,11,20,11.30
2017,04,21,11,21,11.30
2017,04,21,11,22,11.30
2017,04,21,11,23,11.30
2017,04,21,11,24,11.30
2017,04,21,11,25,11.30
2017,04,21,11,26,11.30
2017,04,21,11,27,11.30
2017,04,21,11,28,11.30
2017,04,21,11,29,11.20
2017,04,21,11,30,11.20
2017,04,21,11,31,11.20
2017,04,21,11,32,11.20
2017,04,21,11,33,11.30
2017,04,21,11,34,11.30
2017,04,21,11,35,11.30
2017,04,21,11,36,11.30
2017,04,21,11,37,11.30
2017,04,21,11,38,11.40
2017,04,21,11,39,11.50
2017,04,21,11,40,11.60
2017,04,21,11,41,11.60
2017,04,21,11,42,11.60
2017,04,21,11,43,11.50
2017,04,21,11,44,11.50
2017,04,21,11,45,11.50
2017,04,21,11,46,11.50
2017,04,21,11,47,11.60
2017,04,21,11,48,11.60
2017,04,21,11,49,11.50
2017,04,21,11,50,11.50
2017,04,21,11,51,11.50
2017,04,21,11,52,11.50
2017,04,21,11,53,11.50
2017,04,21,11,54,11.50
2017,04,21,11,55,11.50
2017,04,21,11,56,11.60
2017,04,21,11,57,11.60
2017,04,21,11,58,11.70
2017,04,21,11,59,11.80
2017,04,21,12,00,11.80
2017,04,21,12,01,11.70
2017,04,21,12,02,11.70
2017,04,21,12,03,11.60
2017,04,21,12,04,11.60
2017,04,21,12,05,11.60
2017,04,21,12,06,11.70
2017,04,21,12,07,11.70
2017,04,21,12,08,11.70
2017,04,21,12,09,11.70
2017,04,21,12,10,11.70
2017,04,21,12,11,11.80
2017,04,21,12,12,11.80
2017,04,21,12,13,11.90
2017,04,21,12,14,12.00
2017,04,21,12,15,12.00
2017,04,21,12,16,12.10
2017,04,21,12,17,12.20
2017,04,21,12,18,12.20
2017,04,21,12,19,12.30
2017,04,21,12,20,12.40
2017,04,21,12,21,12.40
2017,04,21,12,22,12.40
2017,04,21,12,23,12.40
2017,04,21,12,24,12.40
2017,04,21,12,25,12.40
2017,04,21,12,26,12.40
2017,04,21,12,27,12.50
2017,04,21,12,28,12.50
2017,04,21,12,29,12.50
2017,04,21,12,30,12.60
2017,04,21,12,31,12.60
2017,04,21,12,32,12.60
2017,04,21,12,33,12.50
2017,04,21,12,34,12.40
2017,04,21,12,35,12.40
2017,04,21,12,36,12.30
2017,04,21,12,37,12.30
2017,04,21,12,38,12.40
2017,04,21,12,39,12.40
2017,04,21,12,40,12.40
2017,04,21,12,41,12.40
2017,04,21,12,42,12.40
2017,04,21,12,43,12.40
2017,04,21,12,44,12.50
2017,04,21,12,45,12.50
2017,04,21,12,46,12.60
2017,04,21,12,47,12.60
2017,04,21,12,48,12.60
2017,04,21,12,49,12.60
2017,04,21,12,50,12.60
2017,04,21,12,51,12.60
2017,04,21,12,52,12.60
2017,04,21,12,53,12.60
2017,04,21,12,54,12.60
2017,04,21,12,55,12.50
2017,04,21,12,56,12.40
2017,04,21,12,57,12.40
2017,04,21,12,58,12.40
2017,04,21,12,59,12.50
2017,04,21,13,00,12.60
2017,04,21,13,01,12.60
2017,04,21,13,02,12.70
2017,04,21,13,03,12.70
2017,04,21,13,04,12.70
2017,04,21,13,05,12.80
2017,04,21,13,06,12.70
2017,04,21,13,07,12.70
2017,04,21,13,08,12.70
2017,04,21,13,09,12.60
2017,04,21,13,10,12.60
2017,04,21,13,11,12.50
2017,04,21,13,12,12.50
2017,04,21,13,13,12.50
2017,04,21,13,14,12.50
2017,04,21,13,15,12.50
2017,04,21,13,16,12.50
2017,04,21,13,17,12.50
2017,04,21,13,18,12.50
2017,04,21,13,19,12.50
2017,04,21,13,20,12.50
2017,04,21,13,21,12.50
2017,04,21,13,22,12.50
2017,04,21,13,23,12.60
2017,04,21,13,24,12.60
2017,04,21,13,25,12.70
2017,04,21,13,26,12.70
2017,04,21,13,27,12.70
2017,04,21,13,28,12.60
2017,04,21,13,29,12.60
2017,04,21,13,30,12.60
2017,04,21,13,31,12.60
2017,04,21,13,32,12.60
2017,04,21,13,33,12.60
2017,04,21,13,34,12.60
2017,04,21,13,35,12.70
2017,04,21,13,36,12.70
2017,04,21,13,37,12.70
2017,04,21,13,38,12.70
2017,04,21,13,39,12.80
2017,04,21,13,40,12.80
2017,04,21,13,41,12.80
2017,04,21,13,42,12.80
2017,04,21,13,43,12.90
2017,04,21,13,44,12.90
2017,04,21,13,45,12.90
2017,04,21,13,46,13.00
2017,04,21,13,47,13.10
2017,04,21,13,48,13.10
2017,04,21,13,49,13.10
2017,04,21,13,50,13.00
2017,04,21,13,51,12.90
2017,04,21,13,52,12.90
2017,04,21,13,53,12.80
2017,04,21,13,54,12.80
2017,04,21,13,55,12.80
2017,04,21,13,56,12.80
2017,04,21,13,57,12.80
2017,04,21,13,58,12.80
2017,04,21,13,59,12.90
2017,04,21,14,00,12.90
2017,04,21,14,01,13.00
2017,04,21,14,02,13.00
2017,04,21,14,03,13.00
2017,04,21,14,04,12.90
2017,04,21,14,05,12.80
2017,04,21,14,06,12.80
2017,04,21,14,07,12.80
2017,04,21,14,08,12.80
2017,04,21,14,09,12.80
2017,04,21,14,10,12.80
2017,04,21,14,11,12.80
2017,04,21,14,12,12.80
2017,04,21,14,13,12.80
2017,04,21,14,14,12.80
2017,04,21,14,15,12.80
2017,04,21,14,16,12.80
2017,04,21,14,17,12.90
2017,04,21,14,18,13.00
2017,04,21,14,19,13.00
2017,04,21,14,20,13.10
2017,04,21,14,21,13.20
2017,04,21,14,22,13.20
2017,04,21,14,23,13.20
2017,04,21,14,24,13.20
2017,04,21,14,25,13.20
2017,04,21,14,26,13.10
2017,04,21,14,27,13.20
2017,04,21,14,28,13.20
2017,04,21,14,29,13.20
2017,04,21,14,30,13.20
2017,04,21,14,31,13.20
2017,04,21,14,32,13.10
2017,04,21,14,33,13.10
2017,04,21,14,34,13.10
2017,04,21,14,35,13.00
2017,04,21,14,36,13.00
2017,04,21,14,37,13.00
2017,04,21,14,38,12.90
2017,04,21,14,39,13.00
2017,04,21,14,40,13.00
2017,04,21,14,41,13.00
2017,04,21,14,42,13.10
2017,04,21,14,43,13.10
2017,04,21,14,44,13.10
2017,04,21,14,45,13.20
2017,04,21,14,46,13.30
2017,04,21,14,47,13.30
2017,04,21,14,48,13.30
2017,04,21,14,49,13.30
2017,04,21,14,50,13.30
2017,04,21,14,51,13.30
2017,04,21,14,52,13.30
2017,04,21,14,53,13.30
2017,04,21,14,54,13.40
2017,04,21,14,55,13.40
2017,04,21,14,56,13.50
2017,04,21,14,57,13.50
2017,04,21,14,58,13.50
2017,04,21,14,59,13.50
2017,04,21,15,00,13.50
2017,04,21,15,01,13.50
2017,04,21,15,02,13.50
2017,04,21,15,03,13.40
2017,04,21,15,04,13.40
2017,04,21,15,05,13.40
2017,04,21,15,06,13.40
2017,04,21,15,07,13.40
2017,04,21,15,08,13.50
2017,04,21,15,09,13.50
2017,04,21,15,10,13.60
2017,04,21,15,11,13.60
2017,04,21,15,12,13.60
2017,04,21,15,13,13.60
2017,04,21,15,14,13.60
2017,04,21,15,15,13.60
2017,04,21,15,16,13.60
2017,04,21,15,17,13.60
2017,04,21,15,18,13.60
2017,04,21,15,19,13.70
2017,04,21,15,20,13.70
2017,04,21,15,21,13.70
2017,04,21,15,22,13.70
2017,04,21,15,23,13.70
2017,04,21,15,24,13.70
2017,04,21,15,25,13.70
2017,04,21,15,26,13.70
2017,04,21,15,27,13.70
2017,04,21,15,28,13.70
2017,04,21,15,29,13.70
2017,04,21,15,30,13.80
2017,04,21,15,31,13.80
2017,04,21,15,32,13.80
2017,04,21,15,33,13.80
2017,04,21,15,34,13.80
2017,04,21,15,35,13.80
2017,04,21,15,36,13.80
2017,04,21,15,37,13.90
2017,04,21,15,38,13.90
2017,04,21,15,39,13.90
2017,04,21,15,40,13.90
2017,04,21,15,41,14.00
2017,04,21,15,42,14.00
2017,04,21,15,43,14.00
2017,04,21,15,44,14.10
2017,04,21,15,45,14.00
2017,04,21,15,46,14.00
2017,04,21,15,47,14.00
2017,04,21,15,48,14.00
2017,04,21,15,49,14.00
2017,04,21,15,50,14.00
2017,04,21,15,51,14.10
2017,04,21,15,52,14.10
2017,04,21,15,53,14.10
2017,04,21,15,54,14.20
2017,04,21,15,55,14.30
2017,04,21,15,56,14.30
2017,04,21,15,57,14.30
2017,04,21,15,58,14.30
2017,04,21,15,59,14.30
2017,04,21,16,00,14.30
2017,04,21,16,01,14.40
2017,04,21,16,02,14.40
2017,04,21,16,03,14.50
2017,04,21,16,04,14.60
2017,04,21,16,05,14.70
2017,04,21,16,06,14.60
2017,04,21,16,07,14.60
2017,04,21,16,08,14.60
2017,04,21,16,09,14.60
2017,04,21,16,10,14.60
2017,04,21,16,11,14.60
2017,04,21,16,12,14.60
2017,04,21,16,13,14.60
2017,04,21,16,14,14.60
2017,04,21,16,15,14.50
2017,04,21,16,16,14.50
2017,04,21,16,17,14.50
2017,04,21,16,18,14.50
2017,04,21,16,19,14.60
2017,04,21,16,20,14.60
2017,04,21,16,21,14.60
2017,04,21,16,22,14.60
2017,04,21,16,23,14.70
2017,04,21,16,24,14.60
2017,04,21,16,25,14.60
2017,04,21,16,26,14.60
2017,04,21,16,27,14.60
2017,04,21,16,28,14.60
2017,04,21,16,29,14.60
2017,04,21,16,30,14.70
2017,04,21,16,31,14.70
2017,04,21,16,32,14.80
2017,04,21,16,33,14.80
2017,04,21,16,34,14.80
2017,04,21,16,35,14.80
2017,04,21,16,36,14.90
2017,04,21,16,37,14.90
2017,04,21,16,38,14.90
2017,04,21,16,39,14.90
2017,04,21,16,40,14.90
2017,04,21,16,41,14.90
2017,04,21,16,42,14.90
2017,04,21,16,43,14.90
2017,04,21,16,44,14.90
2017,04,21,16,45,15.00
2017,04,21,16,46,15.00
2017,04,21,16,47,14.90
2017,04,21,16,48,14.90
2017,04,21,16,49,14.80
2017,04,21,16,50,14.80
2017,04,21,16,51,14.80
2017,04,21,16,52,14.80
2017,04,21,16,53,14.70
2017,04,21,16,54,14.70
2017,04,21,16,55,14.70
2017,04,21,16,56,14.70
2017,04,21,16,57,14.70
2017,04,21,16,58,14.70
2017,04,21,16,59,14.70
2017,04,21,17,00,14.80
2017,04,21,17,01,14.90
2017,04,21,17,02,14.90
2017,04,21,17,03,14.90
2017,04,21,17,04,14.90
2017,04,21,17,05,14.90
2017,04,21,17,06,14.90
2017,04,21,17,07,14.90
2017,04,21,17,08,14.90
2017,04,21,17,09,14.90
2017,04,21,17,10,14.90
2017,04,21,17,11,14.90
2017,04,21,17,12,14.90
2017,04,21,17,13,14.90
2017,04,21,17,14,14.90
2017,04,21,17,15,14.80
2017,04,21,17,16,14.80
2017,04,21,17,17,14.80
2017,04,21,17,18,14.80
2017,04,21,17,19,14.90
2017,04,21,17,20,14.90
2017,04,21,17,21,14.90
2017,04,21,17,22,14.90
2017,04,21,17,23,15.00
2017,04,21,17,24,15.00
2017,04,21,17,25,15.00
2017,04,21,17,26,15.00
2017,04,21,17,27,15.00
2017,04,21,17,28,15.00
2017,04,21,17,29,15.10
2017,04,21,17,30,15.10
2017,04,21,17,31,15.10
2017,04,21,17,32,15.10
2017,04,21,17,33,15.10
2017,04,21,17,34,15.00
2017,04,21,17,35,15.00
2017,04,21,17,36,15.00
2017,04,21,17,37,15.00
2017,04,21,17,38,15.00
2017,04,21,17,39,15.00
2017,04,21,17,40,15.00
2017,04,21,17,41,15.10
2017,04,21,17,42,15.20
2017,04,21,17,43,15.20
2017,04,21,17,44,15.30